RH
16 17 19 17 14 11 8 8 8 7 6 6 5 5 6 14 24 35 44 51 57 60 62 61 60 61 65 75 79 79 82 82 81 79 76 71 66 62 58 57 57 57 55 47 41 38 40 43 43 38 32 26 24 24 25 26 27 28 27 28 29 29 29 27 25 24 25 26 26 26 24 19 16 17 20 23 25 28 29 29 29 29 29 28 28 27 25 25 26 26 26 26 26 24 20 15 14 13 14 14 14 14 14
17 17 18 19 17 15 11 10 9 9 8 7 6 5 5 9 17 27 38 47 54 59 61 61 60 61 63 72 77 79 77 86 85 81 77 71 67 64 61 58 58 58 57 52 46 43 42 44 43 38 32 26 24 23 23 25 28 28 28 28 28 28 29 27 26 25 25 26 26 26 26 22 19 17 17 20 22 24 25 26 26 27 27 27 27 27 26 24 25 25 26 26 25 22 18 14 11 11 11 12 13 13 13
18 17 17 19 19 17 13 11 10 9 9 8 7 6 6 8 13 21 31 42 51 57 60 60 60 61 63 68 74 77 75 86 88 85 78 72 68 65 62 60 59 58 57 55 52 48 46 45 42 38 31 27 24 22 21 25 28 29 29 29 28 28 29 28 27 26 26 26 26 26 26 26 23 20 18 19 20 21 22 23 23 24 24 25 26 27 27 25 23 23 24 24 23 20 16 13 10 9 9 10 11 11 11
19 17 16 17 17 17 14 12 11 10 10 9 8 6 7 8 11 16 25 36 47 56 59 59 60 61 62 65 69 73 74 84 89 88 81 74 68 65 63 61 59 57 57 58 57 55 51 47 42 38 32 28 24 22 20 25 28 29 30 29 28 28 29 29 28 27 26 26 26 26 26 26 26 24 22 22 22 22 22 23 23 23 23 23 24 25 26 25 23 21 21 21 20 18 16 13 10 8 8 8 9 10 10
21 18 16 15 16 17 16 14 12 11 10 10 8 7 7 8 11 14 21 31 42 52 59 59 59 60 62 63 65 69 72 83 89 90 85 77 70 66 64 62 59 56 55 59 61 61 56 49 43 38 33 29 25 22 20 24 27 29 30 29 28 28 29 30 29 28 25 25 24 24 24 25 25 25 25 25 25 25 25 24 24 24 23 21 22 23 25 24 23 21 20 19 19 18 16 13 10 8 7 8 8 9 9
21 19 15 14 15 16 16 14 13 12 11 10 9 8 7 8 10 13 17 25 36 48 57 58 59 59 61 62 64 67 72 81 88 91 89 81 74 69 65 63 59 56 54 59 64 66 62 53 45 38 34 29 25 23 21 24 27 29 30 29 28 28 29 30 30 28 24 23 23 22 22 23 24 25 25 26 27 27 27 26 26 25 23 21 20 20 21 23 22 21 19 19 18 17 16 13 10 8 7 7 8 9 9
21 19 16 14 13 14 15 14 13 12 11 11 11 10 8 8 10 12 16 21 31 42 53 56 58 59 60 62 64 67 72 80 86 90 92 86 80 73 67 64 60 56 55 59 65 69 68 57 47 39 34 28 25 23 23 25 27 29 30 30 29 28 29 30 30 28 23 23 22 21 22 22 23 24 25 26 26 27 27 26 26 25 23 21 19 18 18 20 21 21 19 18 17 16 15 13 10 8 7 7 8 8 8
21 20 18 14 13 13 14 14 14 13 12 12 11 10 8 8 9 12 15 19 26 36 47 53 57 58 59 61 64 68 72 80 84 87 93 90 84 76 72 66 61 58 57 59 65 71 73 62 51 40 33 28 24 23 24 27 28 30 30 30 30 29 29 30 31 29 23 22 22 23 23 23 23 24 25 25 26 26 26 26 25 24 22 20 18 17 16 18 19 20 19 17 16 16 14 12 9 8 7 7 8 8 8
20 20 20 16 14 12 12 12 13 13 13 13 12 11 9 8 9 11 14 17 23 30 40 49 54 58 59 61 64 67 70 76 79 84 91 92 87 80 73 67 62 60 60 60 65 71 75 66 54 42 33 27 24 23 26 28 30 31 31 31 31 30 29 30 31 29 24 24 24 25 26 25 24 24 25 26 26 25 25 24 24 22 20 18 17 16 15 16 18 19 19 17 16 15 14 12 10 8 7 8 8 8 8
21 21 20 19 16 14 12 12 12 13 13 13 12 11 10 8 8 10 14 17 20 26 35 44 52 57 60 62 64 67 68 71 74 80 89 92 90 84 75 68 64 62 62 62 66 72 76 69 57 44 33 27 23 23 27 30 31 31 30 31 31 31 29 30 30 30 27 27 27 28 28 27 26 26 27 27 26 25 24 23 22 21 19 16 15 15 14 16 17 18 18 16 15 15 14 12 10 9 8 8 8 8 9
22 22 21 20 18 17 14 13 12 12 13 12 12 12 11 9 8 9 13 16 19 24 31 41 49 56 61 62 64 66 67 69 71 77 89 92 91 87 78 69 65 64 65 65 68 72 76 70 59 46 33 27 24 24 28 31 32 31 31 29 30 30 29 29 30 31 31 31 30 30 29 27 26 26 27 27 26 25 23 22 21 20 17 15 14 14 14 15 17 18 17 15 15 15 14 12 10 9 8 8 8 8 9
22 21 21 20 19 18 17 15 14 12 12 12 12 12 11 9 8 8 12 15 18 23 29 38 47 55 60 62 64 65 66 67 69 75 90 91 92 89 81 70 66 65 67 68 70 71 73 68 60 48 34 27 24 25 29 32 32 31 29 27 28 29 29 29 30 33 34 33 32 30 29 28 27 27 27 27 26 24 23 22 20 19 17 15 14 14 13 15 15 16 15 15 15 15 15 13 11 9 8 8 8 9 9
23 21 21 20 19 18 17 17 16 14 13 12 12 12 11 8 7 7 10 14 18 22 29 37 45 52 59 61 63 65 65 66 67 74 91 92 92 90 85 73 67 66 68 69 71 71 70 65 58 48 36 29 26 26 29 32 32 30 28 27 28 29 30 30 32 34 36 34 33 31 29 27 26 26 27 26 25 23 22 21 20 18 17 15 14 13 13 13 13 13 13 14 15 15 15 13 11 9 9 8 9 9 9
25 23 22 21 20 18 16 14 13 13 14 14 13 12 11 9 7 6 9 13 17 22 28 35 42 50 57 60 63 64 65 66 66 72 89 92 93 92 88 78 70 67 69 71 72 70 65 61 55 48 39 32 28 27 27 30 31 31 31 31 32 33 34 33 34 36 37 35 34 31 29 26 25 25 25 25 24 22 21 20 19 19 19 18 17 15 14 13 12 12 12 14 15 15 15 13 11 9 9 9 9 9 9
30 26 24 23 22 20 17 15 13 12 14 14 13 12 10 9 7 6 8 12 16 20 27 33 40 47 55 60 63 64 65 66 66 69 81 92 94 92 92 83 74 68 69 73 72 68 61 56 51 46 41 35 31 28 27 29 32 33 35 35 36 36 36 35 37 38 39 38 35 32 29 26 24 23 24 23 22 21 20 19 19 19 22 23 22 19 16 13 12 11 12 13 14 15 14 12 10 9 8 8 9 9 10
35 31 27 25 24 22 20 17 14 12 11 12 12 11 10 9 6 5 6 11 15 20 25 30 36 44 53 59 63 65 66 66 67 68 74 88 93 94 93 86 77 69 69 73 72 67 60 53 48 43 40 36 33 31 30 32 34 37 38 37 37 37 37 38 40 41 40 40 37 33 29 26 24 23 23 22 22 21 19 18 18 19 23 26 26 23 19 15 12 11 12 13 13 14 13 11 10 9 8 8 9 9 10
39 37 32 28 26 25 23 19 16 12 11 11 12 12 10 8 6 4 4 9 14 19 23 28 33 41 51 59 63 65 67 67 68 68 69 80 88 93 93 87 78 70 69 71 70 66 59 51 45 41 37 36 35 35 35 36 39 41 41 39 37 36 37 40 42 43 42 42 39 35 29 26 24 23 23 23 22 21 19 18 17 18 21 25 26 24 20 16 13 12 11 12 12 12 11 10 9 9 8 9 9 10 10
42 41 38 33 29 27 25 22 18 14 12 11 12 12 11 9 6 4 3 8 13 18 22 26 31 39 50 58 63 66 68 68 68 69 68 73 83 92 93 87 80 73 70 70 68 64 58 50 44 39 35 35 37 39 40 41 44 46 44 41 39 37 38 43 45 44 42 42 40 36 30 26 25 24 24 23 22 21 19 18 17 17 18 22 23 22 19 15 13 12 11 11 11 11 10 10 9 9 9 9 9 10 10
40 42 41 37 33 29 27 24 20 17 13 12 11 11 11 10 7 5 3 6 11 17 21 25 30 37 48 57 63 67 69 68 68 69 70 70 80 91 93 88 83 77 74 71 66 61 54 49 44 39 35 35 38 42 44 46 48 50 48 43 41 40 41 45 45 43 41 40 39 36 30 27 26 25 25 24 22 20 19 18 17 16 16 18 18 18 16 14 12 12 11 11 10 10 10 10 10 9 9 9 10 10 11
35 37 39 37 34 31 28 25 22 18 14 12 11 11 11 10 9 6 3 5 9 15 20 24 29 36 45 54 62 67 69 69 68 69 70 70 78 89 93 90 85 81 78 72 65 57 50 47 43 39 35 36 40 44 47 49 52 53 51 46 43 43 45 46 44 41 39 38 37 35 31 28 27 26 26 24 23 21 19 19 18 16 16 15 15 15 14 12 12 11 11 10 10 10 10 10 10 10 10 10 10 11 11
32 32 34 33 32 29 27 24 22 19 16 13 12 11 12 11 10 7 4 4 7 13 19 24 28 34 42 51 60 67 70 69 68 68 70 71 79 88 93 91 88 85 81 74 63 53 46 44 42 39 36 38 42 47 49 51 54 55 54 48 46 46 45 44 42 39 37 36 36 34 31 29 27 27 27 26 24 22 20 19 18 17 16 15 15 14 13 12 11 11 11 10 10 10 10 10 10 10 10 10 11 11 11
31 31 31 30 29 27 24 22 21 19 17 14 12 12 12 12 10 8 5 4 6 11 17 23 27 32 39 48 58 66 70 69 67 67 69 73 82 90 93 92 91 88 84 75 63 51 44 42 41 39 37 39 44 48 50 52 55 58 57 52 49 47 44 41 39 37 36 35 35 33 31 30 28 27 28 27 26 24 21 20 19 18 17 16 15 14 13 12 11 11 11 10 10 10 10 10 10 11 11 11 11 11 11
32 31 31 30 28 26 23 21 20 19 18 15 13 12 12 12 11 9 6 4 5 9 15 22 27 31 36 45 55 64 70 69 67 66 68 76 84 91 93 93 92 90 86 77 63 50 43 41 40 39 37 40 45 48 50 53 56 59 61 56 52 49 45 43 39 36 35 35 34 33 32 30 29 29 29 28 27 25 23 21 20 19 20 18 16 15 13 13 12 11 11 10 10 10 10 10 11 11 11 11 11 11 12
37 35 33 32 30 27 24 21 19 18 18 16 15 14 13 13 12 10 7 4 5 8 15 22 26 29 34 43 53 63 70 69 67 65 68 80 87 91 92 93 93 91 89 79 64 50 43 41 39 38 37 40 44 48 49 53 57 61 63 59 56 53 50 49 45 41 36 35 35 34 33 32 31 30 30 29 28 26 23 21 21 21 22 19 17 16 14 13 12 12 11 11 11 10 10 10 11 11 11 11 12 12 12
46 43 40 36 33 29 26 23 20 19 18 17 17 16 15 13 12 10 8 5 5 9 16 22 26 28 32 40 50 61 70 70 67 65 68 82 88 90 92 93 93 92 91 80 64 50 43 41 39 38 36 40 43 46 49 54 58 61 62 59 58 57 57 56 54 49 42 38 37 36 35 33 32 31 31 30 29 27 24 22 20 21 22 22 20 17 15 14 13 12 12 11 11 11 11 11 11 11 12 12 12 12 12
57 54 50 44 37 32 28 25 23 20 19 19 19 19 18 15 13 11 8 5 6 10 16 23 26 28 31 37 47 59 69 70 67 65 68 81 88 91 92 93 93 93 92 80 64 50 44 42 40 38 36 38 42 45 48 55 59 60 60 58 56 56 60 62 61 57 52 46 42 39 37 34 32 32 30 30 29 28 25 22 21 21 23 22 20 18 16 14 13 13 12 12 11 11 11 11 11 12 12 12 12 12 12
67 64 58 50 42 35 29 27 25 23 22 22 21 21 20 17 15 13 9 6 7 12 20 23 25 27 30 35 45 57 69 71 68 66 67 79 87 92 92 93 94 93 92 80 65 51 45 44 42 39 36 37 40 43 48 54 58 60 59 57 54 54 57 62 62 61 58 54 48 42 38 34 32 31 30 30 29 28 26 22 21 22 23 22 20 18 16 15 14 13 13 13 12 12 12 12 12 12 13 12 12 12 12
75 72 66 56 46 38 31 28 26 25 23 23 22 22 22 20 18 15 10 7 8 13 19 23 25 26 29 33 43 55 70 72 69 66 67 77 86 92 94 94 94 94 92 80 65 52 48 47 44 41 38 38 39 42 47 52 56 58 58 56 54 52 54 57 57 57 58 58 53 46 38 34 32 31 30 30 30 29 27 23 22 22 23 21 19 18 16 15 15 14 13 13 13 13 13 13 13 13 13 13 13 12 12
74 70 66 58 50 41 34 29 27 25 24 24 23 22 21 20 18 15 12 9 11 16 23 23 25 26 28 32 41 54 69 71 69 67 67 75 84 91 94 94 94 94 93 80 66 55 51 49 47 43 40 39 40 43 46 50 53 54 56 55 53 52 54 55 54 52 52 55 54 49 40 35 32 30 31 31 31 30 27 24 23 22 23 21 19 18 17 16 15 14 14 14 13 13 13 13 13 13 13 13 13 12 12
73 69 67 61 53 45 38 32 28 26 25 23 22 21 21 21 19 17 15 12 14 18 23 23 24 26 28 30 40 53 66 70 70 68 68 74 81 88 93 94 94 94 92 80 68 58 54 52 49 46 43 42 43 45 47 49 49 50 53 53 52 53 57 58 58 56 51 51 51 49 44 38 34 32 31 31 31 29 27 25 24 23 23 22 20 18 17 16 15 15 14 14 14 14 14 14 14 14 14 14 13 13 12
77 75 72 66 57 47 39 34 29 26 25 24 22 21 21 21 20 19 17 15 16 19 23 23 24 26 28 29 39 52 65 69 69 69 69 73 79 86 91 93 94 94 91 79 69 60 56 53 50 48 45 45 47 49 50 49 47 46 48 49 49 52 59 59 59 58 52 49 48 48 47 43 39 35 32 32 31 29 27 25 25 25 25 23 21 19 18 17 16 15 15 15 15 15 15 15 15 15 14 14 13 13 13
68 65 64 58 50 43 36 33 28 25 24 23 22 22 21 20 20 20 20 18 18 20 23 23 24 25 27 29 39 53 65 68 69 70 72 73 76 80 86 90 93 93 90 79 70 62 56 53 51 49 47 48 51 53 54 50 47 45 44 44 44 47 54 55 56 55 51 48 48 49 49 46 43 39 35 34 31 29 27 27 27 27 26 25 23 21 19 17 17 16 15 15 15 15 15 15 15 15 15 14 14 14 14
49 47 47 45 41 37 33 31 28 25 23 22 22 21 21 20 21 22 21 21 21 22 23 22 23 25 27 29 39 52 65 68 69 72 74 73 73 74 80 85 90 91 89 80 71 63 57 54 52 51 50 51 54 56 57 54 50 47 44 42 41 42 45 49 51 51 50 48 48 49 50 48 45 42 39 36 32 29 28 28 29 30 29 26 24 22 20 18 17 16 16 16 16 15 15 15 15 15 15 15 14 14 14
39 42 46 44 42 38 33 30 29 27 24 22 21 21 21 21 22 21 20 21 23 24 24 22 22 24 27 31 40 52 65 68 71 74 77 74 72 72 75 81 87 90 89 80 72 64 58 55 53 52 52 53 56 58 59 56 53 49 46 43 41 41 41 46 49 50 49 47 47 48 47 46 45 43 41 37 33 29 28 29 32 34 33 29 27 24 22 20 18 17 17 17 16 16 16 16 15 15 15 15 15 15 15
47 60 70 65 56 45 37 32 30 29 26 23 22 21 22 23 23 22 22 24 25 26 26 23 22 23 27 31 40 51 65 69 72 75 77 74 72 72 76 82 86 89 90 81 72 65 59 55 53 53 53 55 57 59 60 58 56 53 49 46 43 41 40 45 47 48 48 46 45 43 42 43 44 44 42 39 35 31 29 30 33 36 36 33 29 26 24 22 20 18 18 17 17 17 16 16 15 15 15 15 15 15 15
61 75 88 81 66 51 43 40 37 34 29 25 22 22 23 24 24 24 24 25 27 29 28 24 23 24 28 31 39 51 65 70 73 76 78 75 73 73 78 85 88 89 89 80 72 65 60 56 54 54 53 54 57 60 61 59 57 55 52 49 45 43 41 43 45 46 47 45 42 40 39 40 43 45 43 40 37 33 31 32 34 36 38 35 32 28 25 24 22 20 19 18 18 18 17 16 16 15 15 15 15 15 16
72 80 88 78 63 50 46 47 46 43 37 28 24 23 23 24 25 26 26 27 30 31 28 24 23 25 28 31 38 48 63 71 76 78 78 75 73 74 78 87 91 91 89 79 72 66 62 58 56 55 53 54 57 60 63 61 59 56 54 51 49 46 44 43 44 44 45 44 41 38 39 40 43 46 46 42 38 35 33 33 34 36 38 37 34 30 27 26 24 21 20 19 19 19 18 17 16 16 15 15 15 15 16
79 84 87 68 54 47 51 55 56 52 45 32 25 23 23 24 25 26 27 29 30 30 26 24 24 25 28 30 36 47 63 72 77 80 78 75 73 75 81 89 92 92 88 78 72 67 63 60 58 56 53 53 56 60 65 63 61 58 56 54 52 51 49 46 45 44 44 43 41 38 39 39 42 45 47 43 39 36 35 34 34 36 38 38 35 31 28 28 26 24 21 20 20 20 21 18 17 16 16 15 15 15 16
78 80 85 69 60 58 66 65 62 57 50 35 27 25 27 27 27 28 30 31 30 28 25 23 23 25 27 29 35 47 63 72 78 80 78 75 74 76 83 91 93 91 85 77 73 69 64 61 59 57 53 53 56 61 66 65 62 59 58 57 56 55 53 50 47 45 44 43 41 39 39 40 41 43 45 42 40 37 35 35 35 36 37 38 36 32 29 29 28 26 23 21 20 20 22 20 18 17 17 16 16 16 16
76 75 80 73 70 72 80 70 62 56 51 39 36 37 39 36 34 33 34 31 28 26 24 22 23 25 27 28 35 47 62 71 78 80 79 76 75 77 85 92 94 91 83 78 74 70 65 62 59 57 54 54 57 62 67 65 62 60 60 60 60 59 57 55 52 49 46 45 43 40 40 39 40 41 42 42 40 38 36 36 35 35 37 38 36 33 30 30 29 28 25 23 21 20 20 20 19 19 18 17 16 16 16
81 75 75 74 75 78 83 73 62 55 53 49 50 51 51 46 42 39 35 31 27 25 23 22 23 25 26 27 35 47 62 71 77 81 80 76 75 78 88 93 93 90 83 80 76 72 66 63 60 58 56 56 60 65 68 64 61 59 60 61 62 62 61 59 56 52 50 48 46 43 41 39 38 38 39 40 39 39 38 37 35 34 35 36 35 33 31 30 30 30 28 25 23 21 21 20 19 19 18 17 17 16 16
85 76 67 66 74 82 86 77 67 58 59 59 59 60 59 55 49 42 34 30 26 24 23 23 24 25 24 26 35 48 62 70 77 80 80 76 74 78 90 93 93 89 83 81 78 74 68 64 62 60 58 60 65 69 69 62 58 57 59 60 61 62 63 62 59 56 53 50 48 47 43 39 36 35 36 37 38 39 39 37 36 34 34 34 34 33 32 31 31 30 30 27 25 23 21 20 19 19 18 18 18 18 16
82 72 58 59 73 87 88 83 74 66 66 65 65 65 62 58 51 42 32 28 26 25 24 24 24 24 22 26 36 50 63 70 76 80 80 75 76 82 93 94 93 90 83 82 80 76 70 66 64 62 60 64 69 72 69 61 56 55 57 58 60 61 63 62 60 58 55 51 49 48 45 40 36 34 34 35 37 39 39 38 37 36 36 35 35 34 35 33 31 30 30 28 27 25 23 21 20 19 18 19 19 19 19
78 68 57 59 74 89 90 89 82 74 69 68 66 63 59 53 45 37 31 28 27 26 25 25 24 23 22 28 40 54 64 70 75 79 79 76 81 89 94 94 93 90 83 83 82 78 73 68 66 65 64 68 71 72 67 59 54 53 55 57 59 60 62 61 59 57 55 52 49 47 44 41 38 36 35 35 37 39 39 38 38 38 40 39 38 37 37 36 33 30 29 28 28 26 24 23 22 21 19 19 19 20 20
80 74 66 65 77 90 92 91 87 80 73 66 58 52 49 45 39 34 31 30 29 28 28 27 25 23 23 30 43 57 66 70 75 79 78 80 87 93 94 94 93 90 85 83 82 80 75 71 69 68 69 70 70 68 62 57 53 51 53 56 58 60 60 60 58 55 53 50 48 46 44 42 39 37 36 36 37 38 39 39 38 38 41 41 41 39 38 38 36 33 30 29 28 27 26 24 23 22 21 20 20 21 21
88 85 76 70 77 88 92 91 88 83 75 63 52 44 42 40 37 33 32 32 32 31 30 30 28 26 26 33 46 60 68 73 77 79 78 86 91 93 94 94 93 91 87 84 82 80 76 72 71 71 72 69 66 63 59 56 53 52 54 56 58 59 59 58 56 53 51 48 46 45 44 42 40 38 37 38 38 38 38 39 37 37 42 42 42 41 38 39 38 36 35 33 31 29 27 26 24 23 22 22 22 22 22
91 89 83 74 76 84 91 89 87 83 77 64 52 43 39 39 37 35 34 34 34 33 33 33 31 30 30 36 48 62 70 75 78 80 82 89 92 93 93 92 92 90 88 85 83 81 77 74 73 72 71 67 63 60 58 57 55 53 55 57 59 60 59 57 55 53 50 47 45 44 44 42 40 38 38 38 38 37 37 37 36 36 40 42 42 42 39 39 39 38 37 36 35 32 30 28 26 25 24 24 24 24 24
91 91 89 80 77 81 89 88 86 82 77 65 53 43 38 38 38 37 35 36 35 34 35 35 34 32 32 38 50 62 70 75 79 82 86 90 92 92 92 90 90 90 88 86 84 82 78 76 73 72 69 66 63 60 59 58 57 56 57 59 61 62 61 58 55 53 51 48 47 47 47 44 42 39 38 37 37 37 37 36 35 35 36 40 42 42 41 40 39 39 38 38 37 36 34 31 29 27 26 25 26 26 25
91 91 91 88 84 81 85 87 87 83 76 66 54 44 37 37 37 37 36 36 36 36 36 36 35 33 32 40 51 62 69 76 80 84 88 91 92 91 90 90 90 90 87 87 86 83 80 77 74 73 71 68 65 62 60 59 59 59 60 61 63 64 63 59 56 53 50 50 51 53 54 49 44 40 37 36 35 36 37 37 36 35 35 39 41 42 42 40 39 38 39 38 38 38 37 35 32 30 29 28 27 27 27
91 91 91 91 89 86 83 85 85 82 78 71 59 46 38 38 37 37 36 37 37 37 36 36 35 34 33 45 57 67 70 76 82 87 89 91 91 89 87 90 91 90 87 87 86 84 82 79 77 76 76 73 69 64 61 60 60 62 63 64 65 64 63 60 57 54 51 50 51 54 57 52 47 42 38 35 35 36 38 38 38 37 36 38 41 42 41 40 38 37 37 38 38 39 38 37 35 33 32 30 29 28 29
92 91 91 91 90 88 84 84 84 83 82 75 62 49 41 38 37 38 37 38 38 38 36 36 35 35 36 54 66 72 72 76 83 88 91 90 88 88 87 90 91 90 88 87 86 85 83 82 81 81 83 81 75 69 63 61 62 64 67 67 66 64 62 59 57 54 51 50 51 52 54 51 48 44 41 38 37 38 39 38 37 38 37 38 40 41 40 39 37 36 35 35 37 37 37 36 35 34 34 32 31 30 31
92 91 91 91 91 90 87 85 83 82 80 73 64 54 46 42 40 40 38 38 39 39 37 37 36 38 46 65 74 75 71 77 83 87 89 90 88 87 89 91 91 90 89 88 88 87 86 85 84 85 88 86 81 74 67 63 64 66 70 70 68 65 62 60 58 55 53 51 51 52 51 50 49 47 46 41 40 40 39 37 36 36 37 38 39 40 40 39 38 37 36 34 34 34 35 36 36 36 35 34 33 32 32
91 92 91 91 91 91 88 87 85 82 80 74 67 59 52 47 44 42 41 39 39 39 38 37 37 42 58 75 80 77 71 77 83 87 88 89 89 90 91 91 92 92 91 90 90 90 89 88 88 89 91 88 83 77 71 67 67 69 72 73 71 68 66 63 61 59 56 54 53 53 53 53 52 50 48 44 42 41 39 36 36 36 38 38 39 40 40 40 40 39 38 36 36 36 37 39 39 40 39 37 35 34 34
90 92 92 92 92 92 92 90 88 85 81 77 71 63 54 49 45 43 41 40 38 37 37 37 40 49 66 77 79 76 71 76 82 86 87 88 90 92 91 91 92 91 91 92 92 92 90 91 92 93 92 90 85 79 74 71 70 72 75 75 74 73 73 71 69 65 62 59 57 56 56 56 56 55 52 47 44 41 39 37 36 37 38 38 39 39 39 40 41 42 41 40 40 40 40 41 41 41 41 40 38 37 36
87 92 93 92 91 91 91 92 90 87 83 78 73 67 58 53 48 44 41 40 39 39 39 38 45 57 70 77 77 75 71 75 81 86 86 89 91 92 92 92 92 91 91 92 92 91 89 90 92 94 93 90 86 81 77 73 72 74 77 77 78 79 82 81 78 74 69 66 64 63 62 61 59 58 56 51 47 42 39 37 37 38 39 40 40 39 37 39 42 44 43 41 41 42 41 41 41 42 42 42 41 40 39
84 89 92 93 93 92 91 91 90 88 84 79 74 69 63 58 53 48 43 40 39 39 40 41 52 65 75 77 78 78 76 78 81 84 85 90 92 92 93 93 93 92 92 92 91 89 87 89 92 94 94 91 88 83 78 75 74 75 77 78 79 82 87 86 84 81 77 72 71 71 70 69 65 61 57 54 50 46 41 39 38 38 39 40 39 38 36 38 42 44 45 42 41 42 42 42 42 42 42 42 42 42 41
81 84 90 92 92 93 93 90 90 91 87 81 75 69 64 58 55 51 47 43 42 41 42 45 58 72 80 80 81 81 79 78 80 82 85 89 91 92 92 93 93 92 91 91 90 88 87 88 91 93 94 92 89 84 78 74 74 76 79 79 81 84 88 87 87 85 83 78 76 75 76 75 72 66 60 56 52 49 46 42 40 39 40 40 40 38 36 39 42 45 45 44 42 41 42 42 42 42 42 43 43 43 43
79 82 85 89 91 91 92 92 92 91 90 84 77 70 64 58 53 50 48 47 45 45 45 50 62 74 81 83 83 83 80 78 79 82 86 89 90 91 91 93 93 93 92 90 90 90 90 90 91 92 94 93 89 84 79 75 75 77 80 81 83 86 91 90 89 88 86 82 79 76 76 75 72 68 63 57 52 49 48 47 45 43 42 41 41 40 38 39 42 45 46 45 45 43 42 41 41 42 42 42 43 43 44
78 82 83 86 88 90 90 91 91 92 90 88 82 74 67 61 55 51 49 49 48 48 48 52 62 73 81 82 83 82 79 77 79 82 86 89 90 90 90 92 93 93 92 91 91 92 92 92 91 91 92 92 90 86 81 77 76 78 80 83 85 87 92 91 91 89 88 85 82 79 75 74 71 67 62 56 50 47 47 48 49 48 46 44 42 41 40 40 42 44 46 47 47 46 45 44 43 42 41 41 42 43 44
76 80 83 82 83 86 89 89 90 91 91 90 86 80 72 65 60 55 51 49 49 49 50 52 61 71 80 81 81 80 78 77 79 82 86 88 89 89 88 89 90 90 89 89 89 90 92 92 91 91 90 90 89 87 84 80 77 77 80 83 86 89 93 93 92 91 89 87 85 82 78 73 69 65 60 54 49 46 45 48 50 50 49 46 44 43 42 41 42 44 46 48 49 49 50 49 48 46 43 43 43 43 44
76 79 83 80 79 81 85 87 88 90 91 91 89 85 78 71 64 58 53 51 51 52 53 54 62 73 82 81 80 80 79 78 79 81 84 87 88 88 88 89 89 89 87 86 86 87 89 91 92 91 91 89 88 88 87 83 79 78 80 84 87 89 92 92 92 92 90 88 87 84 80 74 69 64 60 55 50 46 44 46 48 50 50 48 46 45 45 44 44 45 48 50 52 54 55 55 53 51 48 47 46 46 45